Regional Weather Roundup
Issued by NWS

Home | Current Version | Previous Version | Graphics & Text | Print | Product List | Glossary On
Versions: 1 2 3 4 5 6 7 8 9 10 11 12 13 14 15 16 17 18 19 20 21 22 23 24 25 26 27 28 29 30 31 32 33 34 35 36 37 38 39 40 41 42 43 44 45 46 47 48 49 50
000
ASUS43 KOAX 161202
RWRNE

WEATHER ROUNDUP FOR NEBRASKA
NATIONAL WEATHER SERVICE OMAHA NE
600 AM CST TUE JAN 16 2018

NOTES: SATELLITE DATA IS BEING USED TO AUGMENT CLOUD COVER ABOVE
       12000 FEET.
       "FAIR" INDICATES FEW OR NO CLOUDS BELOW 12,000 FEET WITH NO
       SIGNIFICANT WEATHER AND/OR OBSTRUCTIONS TO VISIBILITY.


NEZ001>004-019>022-054>056-161300-
NEBRASKA PANHANDLE

CITY           SKY/WX    TMP DP  RH WIND       PRES   REMARKS
SCOTTSBLUFF    CLEAR     -8 -13  78 CALM      30.57F
6HR MIN TEMP:  -9; 6HR MAX TEMP:  -1;

ALLIANCE       CLEAR    -20 -24  82 SW5       30.55F WCI -33
6HR MIN TEMP: -21; 6HR MAX TEMP: -11;

CHADRON        CLEAR    -13 -20  71 SW7       30.61F WCI -29
6HR MIN TEMP: -16; 6HR MAX TEMP: -11;

GORDON         FAIR     -14 -19  76 CALM      30.57F
6HR MIN TEMP: -14; 6HR MAX TEMP:  -7;

KIMBALL        CLEAR     -4 -10  75 W5        30.48F WCI -14
SIDNEY         CLEAR     -9 -13  83 W5        30.55S WCI -20
6HR MIN TEMP: -14; 6HR MAX TEMP:  -3;

$$

NEZ057>060-069>072-079>082-161300-
SOUTHWEST NEBRASKA

CITY           SKY/WX    TMP DP  RH WIND       PRES   REMARKS
NORTH PLATTE   CLEAR     -5 -13  68 W9        30.69S WCI -22
6HR MIN TEMP:  -6; 6HR MAX TEMP:  -1;

IMPERIAL       CLEAR     -5 -10  79 NW12      30.64S WCI -23
6HR MIN TEMP:  -7; 6HR MAX TEMP:   1;

LEXINGTON      CLEAR     -2 -10  68 NW12      30.70S WCI -20
MCCOOK         CLEAR     -2 -10  69 NW13      30.70S WCI -20
6HR MIN TEMP:  -2; 6HR MAX TEMP:   3;

OGALLALA       PTCLDY    -3 -10  73 W5        30.65F WCI -13
$$

NEZ005>010-023>029-035>040-094-161300-
NORTH CENTRAL NEBRASKA

CITY           SKY/WX    TMP DP  RH WIND       PRES   REMARKS
VALENTINE      CLEAR     -9 -17  68 SW6       30.69F WCI -22
6HR MIN TEMP:  -9; 6HR MAX TEMP:  -5;

AINSWORTH      CLEAR     -9 -14  76 NW8       30.68F WCI -25
BROKEN BOW     CLEAR     -6 -15  65 N10       30.69R WCI -24
6HR MIN TEMP:  -6; 6HR MAX TEMP:  -2;

O`NEILL        CLOUDY    -3  -7  82 NW12      30.73R WCI -21
ORD            CLOUDY    -3  -9  75 NW17      30.72R WCI -24
6HR MIN TEMP:  -3; 6HR MAX TEMP:  -2;

THEDFORD       CLEAR     -7 -14  71 W3        30.67S
$$

NEZ041-046>049-061>064-073>077-083>087-161300-
SOUTH CENTRAL NEBRASKA

CITY           SKY/WX    TMP DP  RH WIND       PRES   REMARKS
GRAND ISLAND   CLOUDY    -2  -8  76 NW10      30.72R WCI -19
6HR MIN TEMP:  -3; 6HR MAX TEMP:  -1;

AURORA         CLOUDY    -2  -8  75 NW14      30.71S WCI -21
HASTINGS       CLEAR     -3 -10  72 NW15      30.71R WCI -23
6HR MIN TEMP:  -3; 6HR MAX TEMP:   0;

HEBRON         FLURRIES  -2  -8  74 NW6       30.74S WCI -14
HOLDREGE       CLEAR     -3  -9  75 NW13G18   30.69S WCI -21
KEARNEY        CLEAR     -5 -11  75 NW13      30.71R WCI -24
YORK           PTCLDY     0  -4  85 N12       30.72R WCI -18
$$

NEZ011>018-030>034-042>045-161300-
NORTHEAST NEBRASKA

CITY           SKY/WX    TMP DP  RH WIND       PRES   REMARKS
NORFOLK        CLOUDY    -3  -8  79 NW16      30.72R WCI -24
6HR MIN TEMP:  -4; 6HR MAX TEMP:  -3;

ALBION         CLOUDY     1  -5  76 NW21      30.70R WCI -21
BLAIR          PTCLDY    -3  -9  75 NW16      30.70S WCI -24
COLUMBUS       CLOUDY    -1  -7  75 NW18      30.74S WCI -22
FREMONT        CLOUDY    -1  -7  77 NW8       30.75R WCI -16
TEKAMAH        MOCLDY    -3 -10  72 NW10      30.75S WCI -20
6HR MIN TEMP:  -4; 6HR MAX TEMP:  -1;

WAYNE          CLOUDY    -3  -9  74 NW18      30.73S WCI -25
$$

NEZ050>053-065>068-078-088>093-161300-
SOUTHEAST NEBRASKA

CITY           SKY/WX    TMP DP  RH WIND       PRES   REMARKS
LINCOLN        MOCLDY    -1  -9  68 N14       30.76R WCI -20
6HR MIN TEMP:  -1; 6HR MAX TEMP:   1;

OMAHA EPPLEY   FLURRIES  -2  -9  72 NW21      30.74R WCI -25
6HR MIN TEMP:  -3; 6HR MAX TEMP:   0; 6HR PCP: TRACE;

BEATRICE       CLOUDY     1  -5  75 N13       30.73S WCI -16
FALLS CITY     MOCLDY    -3  -9  75 NW10      30.73S WCI -20
6HR MIN TEMP:  -4; 6HR MAX TEMP:  -2;

NEBRASKA CITY  CLOUDY    -1  -6  79 N14G20    30.72R WCI -19
PLATTSMOUTH    MOCLDY    -2  -7  78 NW15      30.70S WCI -22
$$

NEZ044-045-051>053-067-161300-
OMAHA AREA

CITY           SKY/WX    TMP DP  RH WIND       PRES   REMARKS
OMAHA EPPLEY   FLURRIES  -2  -9  72 NW21      30.74R WCI -25
6HR MIN TEMP:  -3; 6HR MAX TEMP:   0; 6HR PCP: TRACE;

BLAIR          PTCLDY    -3  -9  75 NW16      30.70S WCI -24
FREMONT        CLOUDY    -1  -7  77 NW8       30.75R WCI -16
MILLARD        CLEAR      0  -8  71 NW10      30.75R WCI -17
OFFUTT AFB     CLOUDY    -2 -10  69 NW8       30.73R WCI -16
PLATTSMOUTH    MOCLDY    -2  -7  78 NW15      30.70S WCI -22
WAHOO          FAIR      -1  -8  72 N14       30.73F WCI -20
$$




USA.gov is the U.S. government's official web portal to all federal, state and local government web resources and services.